Home > Weather > Corrientes > Past weeks

Flag for Argentina Past Weather in Corrientes, Corrientes, Argentina — Yesterday and Last 2 Weeks

Now
82 °F

Clear.


Feels Like: 83 °F
Forecast: 74 / 92 °F
Wind: 7 mph from Northeast

Location: Resistencia Aero.

Current Time: Aug 26, 2016 at 10:35:40 PM

Latest Report: Aug 26, 2016 at 10:00 PM


Visibility: 5 mi

Pressure: 29.74 "Hg

Humidity: 51%

Dew Point: 63 °F

Location of CorrientesLocation

Past Weather in Corrientes — Graph

°F

Corrientes Temperature Yesterday

Maximum temperature yesterday: 90 °F (at 3:00 PM)
Minimum temperature yesterday: 52 °F (at 5:00 AM)
Average temperature yesterday: 70 °F

High & Low Weather Summary for the Past Weeks

 TemperatureHumidityPressure
High99 °F (Aug 26, 3:00 PM)100% (Aug 12, 3:00 AM)30.48 "Hg (Aug 12, 3:00 AM)
Low36 °F (Aug 22, 7:00 AM)23% (Aug 18, 4:00 PM)29.53 "Hg (Aug 16, 6:00 PM)
Average66 °F61%29.95 "Hg
* Reported Aug 11 9:00 PM — Aug 26 9:00 PM, Corrientes, Weather by CustomWeather, © 2016

Note: Actual official high and low records may vary slightly from our data, if they occured in-between our weather recording intervals... More about our weather records

Advertising

Corrientes Weather History for the Previous 24 Hours

Scroll right to see more
 ConditionsComfort  
Time TempWeatherWind HumidityBarometerVisibility
9:00 PM
Fri, Aug 26
84 °FClear.7 mph51%29.71 "Hg5 mi
8:00 PM84 °FClear.7 mph45%29.68 "Hg5 mi
7:00 PM88 °FClear.7 mph40%29.68 "Hg5 mi
6:00 PM93 °FClear.9 mph32%29.68 "Hg4 mi
5:00 PM97 °FClear.13 mph28%29.68 "Hg4 mi
4:00 PM99 °FClear.17 mph25%29.68 "Hg4 mi
3:00 PM99 °FClear.15 mph27%29.71 "Hg4 mi
2:00 PM97 °FClear.16 mph28%29.74 "Hg4 mi
1:00 PM95 °FClear.15 mph30%29.77 "Hg4 mi
12:00 PM91 °FClear.13 mph34%29.80 "Hg5 mi
11:00 AM88 °FClear.12 mph40%29.83 "Hg5 mi
10:00 AM81 °FClear.12 mph54%29.83 "Hg5 mi
9:00 AM75 °FClear.12 mph65%29.80 "Hg5 mi
8:00 AM68 °FClear.8 mph83%29.80 "Hg5 mi
7:00 AM68 °FPassing clouds.7 mph78%29.77 "HgN/A
6:00 AM68 °FClear.7 mph78%29.77 "Hg10 mi
5:00 AM68 °FClear.8 mph78%29.77 "Hg10 mi
4:00 AM68 °FClear.7 mph83%29.77 "Hg10 mi
3:00 AM68 °FClear.6 mph78%29.77 "Hg10 mi
2:00 AM68 °FClear.7 mph78%29.80 "Hg10 mi
1:00 AM68 °FClear.7 mph78%29.83 "Hg10 mi
12:00 AM70 °FClear.7 mph73%29.83 "Hg10 mi
11:00 PM
Thu, Aug 25
70 °FClear.6 mph73%29.83 "Hg10 mi
10:00 PM72 °FClear.7 mph65%29.86 "Hg10 mi
Weather by CustomWeather, © 2016

See weather overviewHow to use our weather pages